Location: ????????
(54.6123°N, 39.2099°E)
Time: 06:03:10
(UTC+00:00)

Terra - Pass Details

Date: 19 May 2025
Orbit: 690 x 692 km, 98.0° (Epoch: 15 June)

Event Time Altitude Azimuth Distance (km) Brightness Sun altitude
Exits shadow 19:11:27 - 202° (SSW) 3,084 4.8 -10.6°
Rises 19:11:32 0° 202° (SSW) 3,054 4.8 -10.6°
Reaches altitude 10° 19:14:12 10° 217° (SW) 2,142 4.1 -10.8°
Maximum altitude 19:17:55 23° 269° (W) 1,459 3.8 -11.0°
Drops below altitude 10° 19:21:39 10° 322° (NW) 2,156 5.8 -11.3°
Sets 19:24:21 0° 337° (NNW) 3,078 7.3 -11.5°
